CT1OY Oeiras PT current weather conditions

sailwx.info

Wind from 314

Air temperature 22.2° C
Dewpoint 18.0° C

Last reported at 2015-Sep-01 13:48 UTC.
Time now 2015-Sep-01 14:16 UTC

Location: N 38°44' W 009°17'.
View on Google Maps.

See reports from other nearby stations

  
Tides and Currents Weather Stations Pressure Air Temp Water Temp Dewpoint Dewpoint Depression Visibility Wind Speed Wind Dir Waves Ship Positions
date/time (UTC)wind fromknots sea level pressurealtimeterstation pressurevisibilityair tempwater tempwave heightnotes
2015-Sep-01 13:48 314 22.2
2015-Sep-01 13:38 287 2 gusting 10 22.2
2015-Sep-01 13:18 302 0 gusting 13 21.7
2015-Sep-01 13:08 292 4 gusting 10 22.2
2015-Sep-01 12:58 023 2 gusting 13 21.7
2015-Sep-01 12:48 020 22.2
2015-Sep-01 12:38 287 22.2
2015-Sep-01 12:28 074 21.1
2015-Sep-01 12:18 307 21.1
2015-Sep-01 12:08 290 21.1
2015-Sep-01 11:58 293 21.7
2015-Sep-01 11:48 333 21.1
2015-Sep-01 11:38 290 1 21.1
2015-Sep-01 11:18 290 6 21.1
2015-Sep-01 11:08 330 21.1
2015-Sep-01 10:58 284 21.1
2015-Sep-01 10:48 046 21.7
2015-Sep-01 10:28 266 21.1
2015-Sep-01 10:08 253 3 21.7
2015-Sep-01 09:58 031 21.1
2015-Sep-01 09:38 308 20.6
2015-Sep-01 09:18 293 2 20.6
2015-Sep-01 08:58 276 20.0
2015-Sep-01 08:38 316 4 20.0
2015-Sep-01 08:28 311 1 gusting 10 20.0
2015-Sep-01 08:08 316 5 gusting 10 19.4
2015-Sep-01 07:48 271 0 19.4
2015-Sep-01 07:38 020 2 gusting 10 19.4
2015-Sep-01 07:28 328 5 18.9
2015-Sep-01 07:18 283 1 18.9
2015-Sep-01 07:08 330 0 18.9
2015-Sep-01 06:48 311 0 gusting 10 18.9
2015-Sep-01 06:28 316 1 18.9
2015-Sep-01 06:08 297 2 18.9
2015-Sep-01 05:58 320 6 18.9
2015-Sep-01 05:48 304 2 18.9
2015-Sep-01 05:38 257 4 18.9
2015-Sep-01 05:08 252 3 18.9
2015-Sep-01 04:58 030 1 18.9
2015-Sep-01 04:48 333 2 18.9
2015-Sep-01 04:38 261 6 18.9
2015-Sep-01 04:28 330 1 gusting 10 18.9
2015-Sep-01 04:18 282 0 18.9
2015-Sep-01 04:08 315 1 18.9
2015-Sep-01 03:58 284 1 18.9
2015-Sep-01 03:48 346 18.9
2015-Sep-01 03:38 327 18.9
2015-Sep-01 02:58 325 18.9
2015-Sep-01 02:48 315 0 18.9
2015-Sep-01 02:38 315 18.9
2015-Sep-01 02:18 352 18.9
2015-Sep-01 01:38 304 18.9
2015-Sep-01 01:18 342 2 19.4
2015-Sep-01 01:08 352 6 gusting 13 19.4
2015-Sep-01 00:58 245 19.4
2015-Sep-01 00:48 348 0 19.4
2015-Sep-01 00:38 278 2 gusting 11 19.4
2015-Sep-01 00:28 335 1 19.4
2015-Sep-01 00:08 269 0 gusting 13 19.4
2015-Aug-31 23:48 016 1 gusting 12 19.4
2015-Aug-31 23:38 307 3 gusting 12 19.4
2015-Aug-31 23:28 174 20.0
2015-Aug-31 23:08 319 3 20.0
2015-Aug-31 22:58 306 3 gusting 11 20.0
2015-Aug-31 22:48 269 3 20.0
2015-Aug-31 22:38 291 1 20.0
2015-Aug-31 22:28 350 4 gusting 10 20.0
2015-Aug-31 22:08 315 5 gusting 11 20.0
2015-Aug-31 21:58 315 3 gusting 12 20.0
2015-Aug-31 21:48 269 1 20.0
2015-Aug-31 21:38 360 1 20.6
2015-Aug-31 21:18 016 5 20.6
2015-Aug-31 21:08 313 1 20.6
2015-Aug-31 20:58 299 6 gusting 13 21.1
2015-Aug-31 20:28 252 1 21.1
2015-Aug-31 20:18 305 21.1
2015-Aug-31 20:08 274 21.1
2015-Aug-31 19:58 176 21.1
2015-Aug-31 19:38 271 21.1
2015-Aug-31 19:28 278 21.1
2015-Aug-31 19:08 302 21.7
2015-Aug-31 18:58 281 0 21.7
2015-Aug-31 18:48 262 22.2
2015-Aug-31 18:38 293 22.2
2015-Aug-31 18:18 282 22.8
2015-Aug-31 18:08 238 0 23.3
2015-Aug-31 17:58 221 23.3
2015-Aug-31 17:48 063 23.9
2015-Aug-31 17:18 288 23.3
2015-Aug-31 16:58 291 23.3
2015-Aug-31 16:48 060 23.3
2015-Aug-31 16:38 236 23.9
2015-Aug-31 16:28 131 23.9
2015-Aug-31 16:08 319 24.4
2015-Aug-31 15:58 259 24.4
2015-Aug-31 15:48 242 0 24.4
2015-Aug-31 15:38 301 24.4
2015-Aug-31 15:28 278 25.0
2015-Aug-31 15:18 152 25.0
2015-Aug-31 15:08 278 25.0
2015-Aug-31 14:58 176 25.0
2015-Aug-31 14:48 135 0 25.0
2015-Aug-31 14:38 170 0 24.4
2015-Aug-31 14:28 332 24.4
2015-Aug-31 14:08 108 24.4
2015-Aug-31 13:58 117 24.4
2015-Aug-31 13:48 205 24.4
2015-Aug-31 13:08 128 23.9
2015-Aug-31 12:58 264 23.9
2015-Aug-31 12:48 141 24.4
2015-Aug-31 12:38 210 24.4
2015-Aug-31 12:28 165 2 24.4
2015-Aug-31 11:38 118 23.3
2015-Aug-31 11:28 124 1 23.9
2015-Aug-31 11:18 121 23.3
2015-Aug-31 11:08 210 23.3
2015-Aug-31 10:58 132 23.3
2015-Aug-31 10:48 124 23.9
2015-Aug-31 10:28 239 23.3
2015-Aug-31 09:58 249 22.2
2015-Aug-31 09:48 250 0 22.2
2015-Aug-31 09:28 217 22.2
2015-Aug-31 09:18 016 21.7
2015-Aug-31 09:08 136 3 21.7
2015-Aug-31 08:58 141 21.7
2015-Aug-31 08:48 198 21.1
2015-Aug-31 08:28 236 21.1
2015-Aug-31 08:08 226 21.1
2015-Aug-31 07:58 139 21.1
2015-Aug-31 07:48 165 21.1
2015-Aug-31 07:38 155 21.1
2015-Aug-31 07:28 147 21.1
2015-Aug-31 07:08 195 20.6
2015-Aug-31 06:48 194 20.6
2015-Aug-31 06:38 190 20.6
2015-Aug-31 06:28 267 20.6
2015-Aug-31 06:18 233 20.6
2015-Aug-31 06:08 118 20.6
2015-Aug-31 05:58 132 20.6
2015-Aug-31 05:48 226 20.0
2015-Aug-31 05:38 153 20.0
2015-Aug-31 04:58 259 20.0
2015-Aug-31 04:48 115 20.0
2015-Aug-31 04:28 148 20.0
2015-Aug-31 04:18 163 20.0
2015-Aug-31 04:08 232 20.0
2015-Aug-31 03:48 090 20.0
2015-Aug-31 03:08 145 20.0
2015-Aug-31 02:48 139 20.6
2015-Aug-31 02:38 132 20.6
2015-Aug-31 02:18 142 20.6
2015-Aug-31 02:08 125 20.6
2015-Aug-31 01:58 129 20.6
2015-Aug-31 01:18 135 20.6
2015-Aug-31 01:08 263 20.6
2015-Aug-31 00:48 159 20.6
2015-Aug-31 00:28 240 20.6
2015-Aug-31 00:18 181 21.1
2015-Aug-30 23:58 232 21.1
2015-Aug-30 23:48 130 21.1
2015-Aug-30 23:38 163 20.6
2015-Aug-30 23:28 287 20.6
2015-Aug-30 23:18 150 20.6
2015-Aug-30 22:58 109 20.6
2015-Aug-30 22:28 141 20.6
2015-Aug-30 22:18 143 20.6
2015-Aug-30 21:48 240 20.0
2015-Aug-30 21:28 248 20.6
2015-Aug-30 21:18 249 20.6
2015-Aug-30 21:08 255 20.6
2015-Aug-30 20:38 259 20.6
2015-Aug-30 20:18 250 20.6
2015-Aug-30 20:08 259 21.1
2015-Aug-30 19:58 235 21.1
2015-Aug-30 19:48 236 21.1
2015-Aug-30 19:38 105 21.1
2015-Aug-30 19:28 219 21.7
2015-Aug-30 19:18 217 22.2
2015-Aug-30 19:08 229 22.2
2015-Aug-30 18:58 215 22.8
2015-Aug-30 18:48 262 22.8
2015-Aug-30 18:38 284 0 23.3
2015-Aug-30 18:28 270 23.3
2015-Aug-30 18:18 277 23.3
2015-Aug-30 17:38 256 0 23.9
2015-Aug-30 17:28 358 23.9
2015-Aug-30 17:18 253 1 23.9
2015-Aug-30 17:08 270 3 23.9
2015-Aug-30 16:58 255 3 24.4
2015-Aug-30 16:38 253 0 24.4
2015-Aug-30 16:28 259 1 24.4
2015-Aug-30 15:58 283 24.4
2015-Aug-30 15:48 221 24.4
2015-Aug-30 15:38 284 23.9
2015-Aug-30 15:28 110 24.4
2015-Aug-30 15:08 300 25.0
2015-Aug-30 14:58 285 25.6
2015-Aug-30 14:38 262 25.6